GFSSW_prec_cthk_354.txt.gz
RH
14 14 15 15 15 14 12 11 12 11 10 9 9 9 8 7 6 7 9 10 11 10 9 7 12 17 26 33 30 23 32 28 25 27 24 21 28 26 26 28 27 26 26 26 32
17 17 16 15 14 13 12 11 11 10 10 10 10 9 8 7 8 10 11 12 10 10 10 10 12 20 26 28 33 31 31 24 21 21 22 22 28 28 26 29 30 33 33 30 31
19 18 17 16 14 13 13 12 12 10 10 10 10 11 13 10 16 25 18 14 13 15 19 25 20 27 31 36 32 33 28 23 18 21 28 30 27 29 25 31 30 34 39 38 33
20 19 17 16 15 14 13 12 11 10 10 10 12 11 17 19 17 25 20 18 15 20 21 24 27 31 38 40 41 42 31 26 24 23 29 30 28 26 23 30 33 34 33 39 40
21 19 18 17 15 14 13 11 11 11 10 10 11 12 17 24 21 17 21 21 17 19 22 23 34 39 34 37 45 45 31 33 31 24 32 30 29 27 25 26 34 39 44 43 46
21 20 20 18 16 14 13 12 11 11 10 10 12 14 23 24 23 22 21 23 25 25 25 23 25 36 63 44 51 47 41 37 35 35 32 33 26 27 25 25 34 42 50 49 50
22 21 20 19 17 15 13 13 12 11 12 13 13 17 20 20 25 29 31 34 37 38 40 35 36 42 51 66 52 56 64 59 40 43 45 41 28 24 23 25 32 41 52 56 56
23 22 22 20 17 16 15 14 13 12 14 14 17 23 22 29 31 36 38 35 45 50 53 52 43 45 53 74 72 59 90 61 51 39 34 42 33 29 26 27 30 41 53 60 64
25 25 23 21 18 17 16 15 15 15 18 18 23 30 31 35 41 35 38 42 51 55 58 70 62 50 42 73 80 70 56 63 50 42 42 46 36 26 31 29 31 43 57 62 71
27 26 25 23 21 20 18 17 16 20 21 20 29 30 43 32 34 36 47 57 65 62 60 62 74 59 51 75 95 78 61 57 49 50 47 46 36 28 39 37 34 42 51 59 71
30 28 26 25 23 23 22 21 23 26 18 22 23 33 33 34 42 48 59 70 82 86 81 71 88 81 55 61 93 67 64 51 46 40 53 43 37 35 54 45 45 43 49 56 65
32 30 28 27 25 27 29 27 31 31 31 23 33 35 38 42 44 61 68 87 92 92 88 88 97 77 64 57 73 77 67 73 62 67 60 49 46 40 52 49 46 46 45 57 61
34 32 31 28 28 27 33 29 27 30 31 37 39 35 39 46 54 77 87 90 93 89 82 81 76 81 74 64 65 62 66 76 69 69 80 72 64 55 48 50 52 51 47 49 58
36 34 33 29 29 30 31 24 26 30 45 43 40 51 45 48 76 70 90 91 94 93 89 84 83 85 73 62 79 97 79 95 87 73 78 57 73 60 59 58 48 47 49 46 52
39 37 36 31 30 33 28 24 28 39 60 36 36 41 50 65 63 81 87 93 90 88 88 90 94 93 77 61 69 66 79 85 96 84 75 73 80 57 63 71 56 49 49 46 45
41 39 38 33 33 31 25 26 37 55 53 29 38 44 54 63 71 80 90 98 85 82 76 76 78 89 87 87 68 88 94 95 97 97 96 81 77 63 63 62 59 53 51 48 46
44 43 37 34 33 27 26 37 50 48 32 40 41 53 66 66 73 84 90 95 92 91 89 79 75 79 89 89 84 76 77 96 96 96 89 76 78 76 70 71 68 52 50 52 51
48 45 39 39 31 27 34 44 44 42 46 53 57 63 62 66 74 84 89 88 92 95 94 92 85 78 77 87 80 74 70 88 93 92 82 68 73 68 66 77 71 60 54 54 52
49 47 44 38 30 31 37 43 46 44 49 56 60 59 64 71 82 83 90 88 91 94 98 97 93 82 80 80 80 77 86 73 87 84 79 71 66 63 57 64 67 62 59 56 54
51 48 47 37 31 32 38 39 36 38 50 63 72 66 70 74 84 86 83 89 92 93 97 96 98 91 88 81 78 81 80 84 80 95 95 92 79 77 60 59 62 61 63 59 59
53 54 46 36 33 32 43 36 35 41 52 65 69 77 72 75 85 89 86 82 91 90 95 97 96 88 97 94 86 82 87 81 79 80 95 80 92 76 72 61 58 62 58 60 60
58 60 43 36 41 41 40 34 34 42 52 66 75 74 76 70 79 89 84 90 90 91 96 98 94 96 88 84 86 90 83 80 90 86 77 86 88 65 61 58 59 61 61 59 62
61 56 46 37 49 46 36 32 36 43 54 64 71 77 76 72 80 73 73 78 82 90 97 97 95 95 87 83 81 96 84 85 89 91 82 79 84 62 56 63 62 61 60 58 54
63 67 55 48 44 42 39 37 42 44 55 62 66 73 73 69 68 71 69 71 78 86 87 93 92 94 97 96 90 90 88 82 84 90 95 83 73 67 65 67 67 64 60 54 53
65 63 52 57 53 42 37 39 45 49 53 62 66 73 74 77 71 69 66 66 72 76 81 87 91 88 78 80 83 81 85 84 85 79 93 83 76 74 63 66 65 63 56 55 55
73 65 56 55 47 44 41 37 43 52 59 65 68 73 69 75 75 71 71 68 76 72 81 88 95 93 87 77 80 84 80 83 83 77 79 83 77 67 60 55 56 54 51 52 52
67 61 57 57 52 50 40 37 42 50 59 63 66 73 66 69 69 68 69 70 75 81 83 88 90 93 95 80 85 90 86 86 86 83 84 83 78 63 59 56 55 51 46 44 41

GFSSW_prec_cthk_357.txt.gz
RH
17 16 16 16 15 14 12 12 11 10 9 9 8 8 8 7 7 6 6 8 10 12 12 11 13 13 27 31 34 31 34 29 27 25 22 12 25 21 23 24 29 30 32 29 33
19 18 17 16 15 14 13 12 11 9 9 8 8 8 8 8 9 9 13 16 16 14 13 13 12 16 24 35 39 41 34 26 22 21 18 14 23 26 25 23 33 37 35 37 37
20 19 17 16 16 15 14 13 11 10 9 9 9 9 9 10 11 22 23 22 21 17 17 19 26 21 22 27 36 43 35 22 21 20 20 20 16 27 27 26 25 35 41 46 44
21 19 18 18 17 16 14 13 11 11 10 10 10 10 11 14 13 25 24 22 17 18 19 21 24 30 37 35 36 47 32 31 29 23 24 31 24 27 26 30 23 28 34 43 47
22 20 19 19 18 16 15 13 13 12 11 11 12 13 15 22 20 22 23 24 22 21 20 21 23 33 36 41 43 52 35 41 36 29 24 32 33 31 34 30 23 28 36 43 51
23 22 20 20 18 17 16 15 15 15 14 14 15 16 20 24 22 26 27 26 27 29 30 30 28 28 40 45 54 44 53 59 48 40 28 34 35 37 36 35 28 33 37 47 54
25 24 22 21 19 19 18 18 18 18 17 18 18 20 21 19 25 29 31 31 31 34 39 43 46 45 44 40 30 64 59 65 77 46 34 40 37 38 39 42 36 39 42 49 56
27 27 25 22 21 20 20 21 20 19 19 20 21 28 25 33 34 32 30 27 33 41 53 60 62 61 54 47 44 59 89 79 73 67 38 46 45 35 37 43 43 40 43 47 56
30 29 26 24 22 23 22 21 20 21 21 18 23 30 35 35 31 32 41 39 46 58 68 72 81 77 73 71 61 74 88 86 78 76 65 54 48 40 37 39 37 38 40 44 52
33 31 28 27 25 24 23 22 21 22 18 20 29 30 29 25 30 34 44 54 64 73 84 88 83 81 76 80 72 66 92 87 83 67 67 66 48 35 41 44 41 42 47 43 51
37 34 31 29 26 26 24 22 23 21 19 29 30 30 28 28 35 44 55 69 81 85 95 95 85 90 88 82 60 76 99 83 66 64 67 58 39 30 43 46 48 48 50 53 54
39 36 34 31 29 27 27 27 29 30 31 31 31 28 32 37 38 53 60 76 78 86 88 88 90 87 90 84 65 71 96 90 76 66 65 50 40 38 49 51 55 53 60 56 54
41 40 38 33 32 30 30 26 25 31 35 33 32 33 34 42 52 55 75 79 82 84 85 91 80 80 90 84 74 72 87 98 84 79 61 54 58 58 54 62 70 70 62 63 51
45 41 38 37 33 31 29 25 29 36 47 30 27 34 36 41 53 73 77 82 86 86 92 97 97 88 82 84 75 83 82 80 96 89 93 83 81 62 59 58 66 64 70 64 60
46 44 41 36 33 32 27 29 37 47 49 26 29 39 52 57 63 72 76 81 82 84 85 76 92 97 94 81 67 64 64 69 82 93 92 98 88 69 69 65 57 60 64 71 61
48 46 44 40 34 30 30 35 44 43 46 29 35 43 45 52 61 69 76 78 79 83 82 88 80 94 96 75 69 86 88 78 84 94 96 79 73 66 68 63 66 70 63 65 56
51 48 45 41 36 32 33 38 43 45 31 39 42 47 54 54 61 68 75 76 86 88 93 86 73 83 95 80 75 80 75 97 96 97 97 80 77 71 67 68 70 69 71 66 60
53 51 48 43 36 33 34 37 48 44 41 42 48 51 53 53 62 70 75 77 86 92 97 98 86 73 89 92 96 97 85 89 95 96 94 80 80 75 73 75 70 78 77 70 66
55 54 52 45 37 35 34 46 49 48 45 47 48 52 57 59 71 73 75 77 87 92 94 94 92 72 73 87 83 80 85 74 90 89 85 81 72 67 68 75 81 82 80 74 68
58 57 56 46 39 33 38 45 44 40 42 54 58 60 67 62 71 77 75 78 83 87 93 95 97 94 81 75 76 76 76 78 83 94 96 89 80 79 68 72 77 82 77 75 70
59 60 58 46 39 35 47 44 40 39 43 55 63 68 66 71 75 80 77 73 76 84 89 95 94 90 94 91 87 84 84 82 82 81 97 95 95 79 77 69 68 71 75 75 72
65 66 57 47 44 47 45 42 40 38 42 52 60 69 69 68 76 77 74 75 73 87 92 94 92 94 91 88 90 86 86 84 87 89 83 89 84 73 73 74 66 68 72 69 72
66 67 61 49 51 52 43 42 41 40 44 50 58 65 63 67 74 68 68 66 67 84 90 92 92 93 86 83 83 96 85 80 83 87 86 83 83 76 66 71 71 69 71 69 71
70 74 65 56 51 49 47 45 44 41 44 49 56 59 61 65 64 66 64 60 67 80 84 90 91 95 97 96 94 90 91 87 83 86 90 83 80 77 73 77 76 73 71 70 66
72 75 65 66 57 52 49 48 44 43 44 51 55 59 62 70 67 66 62 60 63 71 76 87 91 90 86 83 87 85 89 88 84 79 89 85 86 81 72 78 77 71 63 62 65
78 74 71 65 57 55 56 48 43 43 48 52 59 61 59 68 70 65 64 64 64 68 74 83 90 89 88 77 82 87 85 85 83 83 82 82 86 78 73 68 71 69 63 62 61
78 76 71 68 64 60 57 46 39 41 46 50 59 64 65 69 66 62 62 63 65 75 77 82 87 91 92 81 86 87 87 89 88 87 85 86 84 79 74 72 66 62 60 56 55

GFSSW_prec_cthk_360.txt.gz
RH
19 18 16 15 14 14 13 13 12 11 10 9 8 8 7 7 7 7 8 12 15 17 14 13 14 15 15 21 33 33 37 31 27 23 18 13 11 17 21 21 23 26 27 31 39
21 19 17 16 15 14 14 12 11 11 10 10 9 9 9 8 9 14 22 23 25 21 18 16 18 16 20 26 38 41 39 31 24 22 21 16 12 19 22 24 30 30 30 36 40
22 20 19 18 17 16 14 13 13 12 12 12 12 12 12 11 12 28 24 24 23 22 22 22 21 23 26 28 35 48 37 27 26 24 25 21 19 18 27 25 27 31 34 37 44
23 21 21 20 19 17 15 14 14 15 15 15 15 15 14 14 14 25 27 26 24 22 21 22 23 27 33 33 36 48 33 44 38 33 32 32 26 22 24 30 25 28 33 36 44
25 23 24 23 21 19 17 16 16 17 17 18 17 16 16 17 22 28 28 27 28 29 28 30 31 30 32 40 39 44 38 50 46 55 44 34 29 27 24 29 33 37 37 38 45
28 27 27 26 23 21 20 19 19 19 19 20 19 17 19 22 27 29 31 26 24 25 28 36 41 45 45 35 44 48 48 42 44 46 45 34 29 37 27 32 38 42 45 44 44
30 30 29 27 25 24 22 22 21 20 20 20 18 19 23 29 28 26 26 24 26 31 32 38 50 60 57 53 46 40 54 56 53 51 52 40 42 42 36 42 46 47 51 49 45
33 33 32 29 28 27 25 23 23 21 21 18 18 24 30 27 25 25 26 26 30 37 43 54 66 68 73 70 64 63 55 65 42 50 61 64 45 41 48 50 54 56 53 51 47
37 37 34 32 30 28 27 25 23 22 19 19 23 27 26 22 22 24 27 31 38 53 67 73 85 84 89 97 89 81 65 58 56 57 64 85 52 39 51 54 59 67 60 55 50
42 41 37 34 31 30 27 25 23 22 22 22 23 23 23 22 26 31 36 40 50 58 65 80 86 91 91 94 91 85 84 60 67 72 69 83 73 46 51 54 60 69 74 59 52
43 42 39 35 32 28 27 24 23 21 26 29 28 28 25 23 31 36 40 50 55 69 74 78 86 89 86 89 95 88 78 91 85 80 79 78 81 57 37 49 57 71 69 64 57
45 43 41 36 32 30 27 26 28 28 32 31 28 27 27 31 33 42 49 51 64 74 78 82 82 75 85 93 95 85 74 84 92 87 86 84 81 65 58 47 45 49 62 61 55
47 46 42 38 35 32 29 28 32 37 38 31 25 29 34 31 39 46 52 57 69 72 79 85 89 84 83 94 89 77 71 85 95 88 75 85 75 72 66 56 53 59 57 67 56
50 46 42 40 37 33 31 32 35 41 44 26 25 31 35 31 41 51 56 62 70 73 72 72 80 93 88 88 82 76 71 80 94 92 91 77 77 62 69 58 61 63 70 74 81
53 48 44 41 38 34 34 35 40 45 38 27 30 35 40 40 45 48 55 60 72 78 78 74 76 87 97 86 73 68 80 86 91 97 95 86 82 62 65 69 78 77 76 88 83
55 50 48 45 39 37 36 37 44 37 36 31 33 35 35 39 47 54 61 56 73 77 81 81 73 93 93 94 74 83 86 94 94 88 96 95 79 76 69 63 65 71 82 80 90
58 52 49 48 43 39 37 38 42 41 34 35 38 42 44 42 48 55 64 62 77 79 76 75 71 84 89 79 86 87 86 90 88 91 84 95 89 83 77 75 72 67 64 67 74
60 54 52 49 44 39 38 39 45 48 46 43 43 44 46 44 50 59 66 68 77 85 85 87 78 74 87 97 92 96 88 95 96 90 86 94 91 87 84 79 79 84 84 80 76
62 57 57 50 46 40 38 50 52 51 48 50 45 46 47 48 57 62 68 71 75 84 88 86 87 80 81 89 91 87 90 81 90 95 96 94 83 85 83 80 82 86 94 94 92
64 62 61 53 47 42 44 51 51 48 48 52 57 54 59 56 59 65 68 70 73 82 87 88 89 86 75 77 77 77 78 76 82 92 94 93 86 81 74 81 84 88 91 96 90
65 65 63 53 49 41 53 52 47 44 48 51 57 59 57 62 63 68 69 65 70 79 85 89 91 83 86 86 88 85 86 81 77 86 95 90 88 75 72 74 76 84 91 92 89
69 68 63 55 53 52 51 50 47 47 48 48 52 58 59 59 64 70 68 66 66 80 90 90 91 90 86 84 87 91 92 89 86 81 90 86 89 82 78 74 73 75 78 89 87
71 70 66 58 57 58 51 49 49 49 49 47 50 54 55 56 65 61 62 62 65 79 91 91 91 93 84 83 85 96 86 87 86 86 89 87 82 79 69 70 74 73 75 76 78
73 76 69 63 62 56 55 53 52 50 48 46 48 49 53 55 58 61 58 57 62 77 79 92 90 95 97 97 96 96 94 85 82 88 86 82 81 77 76 74 79 77 76 76 74
78 78 73 74 67 58 57 56 53 53 47 47 48 50 57 58 60 60 58 56 57 70 70 84 90 90 90 89 90 89 93 91 88 86 84 82 85 80 79 79 82 78 76 74 74
81 76 74 70 65 63 63 57 52 52 50 47 50 52 59 65 65 61 62 60 61 62 72 79 85 87 89 79 85 89 87 87 89 88 84 84 84 79 81 79 80 72 65 66 70
83 78 71 71 69 66 65 54 48 49 44 47 47 54 60 61 63 62 60 62 64 68 74 78 81 86 89 82 84 85 86 88 90 89 89 87 82 84 81 73 67 69 68 68 69

GFSSW_prec_cthk_363.txt.gz
RH
21 19 17 17 16 15 15 14 13 12 12 12 11 12 12 11 11 14 17 20 23 19 16 15 14 14 16 19 27 39 43 33 29 24 18 17 15 14 13 16 20 24 24 26 39
22 20 19 18 18 17 15 15 14 14 14 14 14 14 14 14 17 21 27 25 24 22 18 17 18 18 19 23 26 41 46 35 28 26 23 21 17 17 16 22 24 24 27 32 38
23 22 21 21 20 18 17 16 16 16 16 16 15 16 15 14 20 28 21 20 23 21 20 20 21 21 26 24 29 34 39 44 34 32 30 26 22 19 20 20 26 26 30 34 39
26 25 24 24 22 21 20 19 19 19 18 17 17 17 15 15 17 22 23 23 23 22 23 23 24 25 29 33 31 40 35 53 57 47 42 37 30 26 22 21 26 27 32 34 39
30 28 28 27 27 25 24 22 22 20 19 19 18 16 16 19 24 24 23 23 22 22 22 23 26 32 35 32 33 36 34 43 46 67 60 48 41 37 27 25 28 37 38 43 43
34 33 32 32 31 29 28 26 24 23 22 20 17 18 20 23 26 24 24 20 20 22 24 28 31 35 39 38 43 36 41 38 39 50 67 65 47 45 28 29 35 47 48 49 47
38 38 37 35 34 33 31 28 26 25 22 19 18 22 24 23 21 20 21 20 24 28 32 35 41 47 52 57 53 54 58 48 36 43 50 67 68 40 36 37 45 50 54 57 54
42 42 41 40 38 35 32 29 25 23 21 20 22 25 24 21 21 24 24 23 26 31 37 45 54 61 68 77 81 83 79 61 32 32 47 53 56 38 40 46 49 54 58 63 59
43 43 42 40 38 36 32 28 23 22 22 23 23 23 21 22 23 25 27 28 29 37 42 48 57 67 73 86 91 91 97 78 57 43 39 57 55 46 44 45 54 62 64 66 64
46 44 42 40 38 36 32 27 25 26 25 26 25 23 23 26 27 29 30 32 36 42 49 57 63 69 76 87 82 86 84 87 75 54 51 59 55 67 53 45 60 63 74 69 67
48 45 42 42 39 35 32 29 28 26 30 29 31 31 32 27 29 30 29 32 42 50 58 65 75 78 74 80 89 89 93 94 77 75 74 72 59 64 68 55 61 72 90 81 78
53 49 46 43 41 35 33 35 37 35 37 31 30 34 31 28 31 32 32 39 51 57 65 65 73 79 83 83 93 96 94 81 77 87 82 81 67 70 77 64 62 72 84 91 87
57 54 48 44 42 38 36 38 39 39 39 31 31 33 34 30 35 33 34 43 56 61 64 68 70 79 96 92 96 92 81 82 90 97 86 94 85 86 84 78 64 62 70 78 79
59 55 50 47 43 40 39 40 41 44 42 29 30 33 32 29 35 36 38 47 56 65 66 71 77 81 93 97 93 89 72 72 90 96 98 93 97 87 83 82 68 65 66 73 76
65 59 51 46 45 40 39 40 44 47 35 30 32 33 33 36 39 38 41 46 60 65 71 70 72 86 86 99 80 72 77 90 93 96 96 95 93 81 89 88 77 67 69 74 75
68 61 54 51 45 43 41 41 46 41 35 36 34 36 32 31 37 41 43 48 59 62 66 69 70 83 85 90 78 80 88 97 95 96 96 92 83 84 87 84 75 73 70 78 79
69 61 55 54 50 45 43 43 46 45 39 38 43 42 43 39 41 45 51 54 68 67 70 65 66 81 97 86 88 96 96 95 93 87 92 95 83 87 79 81 74 85 83 90 95
69 61 58 56 50 47 45 45 44 51 50 45 46 43 45 42 40 47 53 62 71 76 78 80 75 80 89 95 93 93 98 92 90 93 92 94 96 85 77 72 78 87 94 97 98
69 62 60 56 53 48 45 54 58 56 50 53 49 48 46 46 47 49 57 62 69 74 81 83 76 73 83 90 95 85 93 83 97 94 92 95 93 92 88 84 81 83 86 87 93
71 63 62 57 54 49 51 57 56 52 52 57 61 55 57 50 49 54 60 65 65 72 81 87 85 80 73 76 80 88 86 87 90 96 96 97 97 90 82 85 86 88 88 88 85
68 64 64 60 55 48 58 54 52 51 51 58 59 58 57 56 54 58 61 60 65 71 79 91 91 79 81 81 86 81 87 86 79 90 94 95 95 82 81 80 85 87 91 98 99
72 68 64 57 54 54 55 51 51 51 52 54 55 59 56 52 55 59 61 63 61 68 85 91 95 92 88 83 83 88 87 89 88 82 86 80 86 81 73 72 74 78 85 88 96
74 70 65 57 57 58 53 49 51 51 51 53 51 55 51 50 55 54 55 56 59 67 78 90 93 94 87 84 83 93 87 84 87 85 87 80 77 77 74 73 73 70 73 78 85
83 78 65 60 60 56 55 52 53 50 50 52 50 51 50 50 52 52 53 52 56 69 70 83 94 95 98 97 97 97 93 86 84 86 82 78 76 72 68 64 65 71 76 77 76
84 79 75 74 69 61 56 57 56 52 49 51 52 51 53 57 59 59 54 52 54 61 63 74 92 92 90 94 92 96 97 96 92 90 84 80 79 74 75 78 76 78 80 77 79
84 78 74 75 70 67 66 60 53 50 49 51 51 50 53 59 57 60 61 58 59 57 63 70 84 88 91 84 89 90 92 94 94 91 84 83 82 79 81 84 78 78 76 74 79
84 80 71 71 74 65 60 53 44 42 41 47 48 52 54 54 57 58 59 60 60 63 69 73 78 82 89 82 82 85 86 91 94 93 91 88 82 81 79 82 74 73 71 72 74